Time,TemperatureF,DewpointF,PressureIn,WindDirection,WindDirectionDegrees,WindSpeedMPH,WindSpeedGustMPH,Humidity,HourlyPrecipIn,Conditions,Clouds,dailyrainin,SoftwareType,DateUTC
2013-01-20 00:04:00,70.0,68.0,30.06,North,355,1.0,-999.0,92,-99.99,,,-99.99,,2013-01-20 05:04:00,
2013-01-20 00:12:00,70.0,68.0,30.06,North,355,1.0,-999.0,92,-99.99,,,-99.99,,2013-01-20 05:12:00,
2013-01-20 00:22:00,70.0,68.0,30.06,North,355,0.0,-999.0,92,-99.99,,,-99.99,,2013-01-20 05:22:00,
2013-01-20 00:33:00,70.0,68.0,30.05,North,351,0.0,-999.0,92,-99.99,,,-99.99,,2013-01-20 05:33:00,
2013-01-20 00:43:00,70.0,68.0,30.05,North,351,0.0,-999.0,92,-99.99,,,-99.99,,2013-01-20 05:43:00,
2013-01-20 00:53:00,70.0,68.0,30.05,North,355,0.0,-999.0,92,-99.99,,,-99.99,,2013-01-20 05:53:00,
2013-01-20 01:02:00,70.0,68.0,30.04,North,355,0.0,-999.0,93,-99.99,,,-99.99,,2013-01-20 06:02:00,
2013-01-20 01:12:00,70.0,68.0,30.04,North,355,0.0,-999.0,93,-99.99,,,-99.99,,2013-01-20 06:12:00,
2013-01-20 01:22:00,70.0,68.0,30.05,North,355,0.0,-999.0,93,-99.99,,,-99.99,,2013-01-20 06:22:00,
2013-01-20 01:33:00,70.0,68.0,30.04,North,355,0.0,-999.0,93,-99.99,,,-99.99,,2013-01-20 06:33:00,
2013-01-20 01:43:00,70.0,68.0,30.04,North,355,0.0,-999.0,93,-99.99,,,-99.99,,2013-01-20 06:43:00,
2013-01-20 01:53:00,70.0,68.0,30.04,North,355,0.0,-999.0,93,-99.99,,,-99.99,,2013-01-20 06:53:00,
2013-01-20 02:02:00,70.0,68.0,30.04,North,355,0.0,-999.0,93,-99.99,,,-99.99,,2013-01-20 07:02:00,
2013-01-20 02:12:00,70.0,68.0,30.04,North,355,0.0,-999.0,93,-99.99,,,-99.99,,2013-01-20 07:12:00,
2013-01-20 02:22:00,70.0,68.0,30.03,North,355,0.0,-999.0,93,-99.99,,,-99.99,,2013-01-20 07:22:00,
2013-01-20 02:32:00,70.0,68.0,30.03,North,355,0.0,-999.0,93,-99.99,,,-99.99,,2013-01-20 07:32:00,
2013-01-20 02:42:00,70.0,68.0,30.03,North,355,0.0,-999.0,93,-99.99,,,-99.99,,2013-01-20 07:42:00,
2013-01-20 02:52:00,70.0,68.0,30.03,North,355,0.0,-999.0,93,-99.99,,,-99.99,,2013-01-20 07:52:00,
2013-01-20 03:02:00,70.0,68.0,30.03,North,355,0.0,-999.0,93,-99.99,,,-99.99,,2013-01-20 08:02:00,
2013-01-20 03:12:00,70.0,68.0,30.03,North,355,0.0,-999.0,93,-99.99,,,-99.99,,2013-01-20 08:12:00,
2013-01-20 03:22:00,70.0,68.0,30.02,North,355,0.0,-999.0,93,-99.99,,,-99.99,,2013-01-20 08:22:00,
2013-01-20 03:32:00,70.0,68.0,30.02,North,355,0.0,-999.0,93,-99.99,,,-99.99,,2013-01-20 08:32:00,
2013-01-20 03:42:00,70.0,68.0,30.02,North,355,0.0,-999.0,93,-99.99,,,-99.99,,2013-01-20 08:42:00,
2013-01-20 03:53:00,70.0,68.0,30.03,North,355,0.0,-999.0,93,-99.99,,,-99.99,,2013-01-20 08:53:00,
2013-01-20 04:02:00,70.0,68.0,30.03,North,355,1.0,-999.0,93,-99.99,,,-99.99,,2013-01-20 09:02:00,
2013-01-20 04:12:00,70.0,68.0,30.03,North,355,1.0,-999.0,93,-99.99,,,-99.99,,2013-01-20 09:12:00,
2013-01-20 04:22:00,70.0,68.0,30.02,North,355,0.0,-999.0,93,-99.99,,,-99.99,,2013-01-20 09:22:00,
2013-01-20 04:33:00,70.0,68.0,30.03,North,355,0.0,-999.0,93,-99.99,,,-99.99,,2013-01-20 09:33:00,
2013-01-20 04:42:00,70.0,68.0,30.03,North,355,0.0,-999.0,93,-99.99,,,-99.99,,2013-01-20 09:42:00,
2013-01-20 04:53:00,70.0,68.0,30.03,North,350,0.0,-999.0,93,-99.99,,,-99.99,,2013-01-20 09:53:00,
2013-01-20 05:02:00,69.0,67.0,30.02,North,351,0.0,-999.0,93,-99.99,,,-99.99,,2013-01-20 10:02:00,
2013-01-20 05:12:00,69.0,67.0,30.02,North,351,0.0,-999.0,93,-99.99,,,-99.99,,2013-01-20 10:12:00,
2013-01-20 05:23:00,69.0,67.0,30.03,North,351,0.0,-999.0,93,-99.99,,,-99.99,,2013-01-20 10:23:00,
2013-01-20 05:32:00,69.0,67.0,30.03,North,350,0.0,-999.0,93,-99.99,,,-99.99,,2013-01-20 10:32:00,
2013-01-20 05:42:00,69.0,67.0,30.03,North,350,0.0,-999.0,93,-99.99,,,-99.99,,2013-01-20 10:42:00,
2013-01-20 05:53:00,69.0,67.0,30.03,North,351,0.0,-999.0,93,-99.99,,,-99.99,,2013-01-20 10:53:00,
2013-01-20 06:02:00,69.0,67.0,30.04,NNW,344,1.0,-999.0,94,-99.99,,,-99.99,,2013-01-20 11:02:00,
2013-01-20 06:12:00,69.0,67.0,30.04,NNW,344,1.0,-999.0,94,-99.99,,,-99.99,,2013-01-20 11:12:00,
2013-01-20 06:22:00,69.0,67.0,30.05,NNW,348,0.0,-999.0,94,-99.99,,,-99.99,,2013-01-20 11:22:00,
2013-01-20 06:33:00,68.0,66.0,30.04,NNW,348,0.0,-999.0,94,-99.99,,,-99.99,,2013-01-20 11:33:00,
2013-01-20 06:43:00,68.0,66.0,30.04,NNW,348,0.0,-999.0,94,-99.99,,,-99.99,,2013-01-20 11:43:00,
2013-01-20 06:54:00,68.0,66.0,30.04,NNW,348,0.0,-999.0,94,-99.99,,,-99.99,,2013-01-20 11:54:00,
2013-01-20 07:03:00,68.0,66.0,30.04,NNW,348,0.0,-999.0,94,-99.99,,,-99.99,,2013-01-20 12:03:00,
2013-01-20 07:12:00,68.0,66.0,30.04,NNW,348,0.0,-999.0,94,-99.99,,,-99.99,,2013-01-20 12:12:00,
2013-01-20 07:23:00,68.0,66.0,30.05,NNW,348,0.0,-999.0,94,-99.99,,,-99.99,,2013-01-20 12:23:00,
2013-01-20 07:33:00,68.0,66.0,30.06,NNW,348,0.0,-999.0,94,-99.99,,,-99.99,,2013-01-20 12:33:00,
2013-01-20 07:43:00,68.0,66.0,30.06,NNW,348,0.0,-999.0,94,-99.99,,,-99.99,,2013-01-20 12:43:00,
2013-01-20 07:53:00,69.0,67.0,30.06,NNW,348,0.0,-999.0,94,-99.99,,,-99.99,,2013-01-20 12:53:00,
2013-01-20 08:03:00,69.0,67.0,30.07,NNW,348,0.0,-999.0,94,-99.99,,,-99.99,,2013-01-20 13:03:00,
2013-01-20 08:12:00,69.0,67.0,30.07,NNW,348,0.0,-999.0,94,-99.99,,,-99.99,,2013-01-20 13:12:00,
2013-01-20 08:23:00,68.0,66.0,30.06,North,355,0.0,-999.0,94,-99.99,,,-99.99,,2013-01-20 13:23:00,
2013-01-20 08:33:00,68.0,66.0,30.07,North,355,0.0,-999.0,94,-99.99,,,-99.99,,2013-01-20 13:33:00,
2013-01-20 08:43:00,68.0,66.0,30.07,North,355,0.0,-999.0,94,-99.99,,,-99.99,,2013-01-20 13:43:00,
2013-01-20 08:53:00,69.0,67.0,30.08,North,355,0.0,-999.0,94,-99.99,,,-99.99,,2013-01-20 13:53:00,
2013-01-20 09:02:00,69.0,67.0,30.08,North,5,4.0,-999.0,94,-99.99,,,-99.99,,2013-01-20 14:02:00,
2013-01-20 09:12:00,69.0,67.0,30.08,North,5,4.0,-999.0,94,-99.99,,,-99.99,,2013-01-20 14:12:00,
2013-01-20 09:23:00,69.0,67.0,30.09,NNE,13,3.0,-999.0,94,-99.99,,,-99.99,,2013-01-20 14:23:00,
2013-01-20 09:33:00,69.0,67.0,30.10,North,11,3.0,-999.0,94,-99.99,,,-99.99,,2013-01-20 14:33:00,
2013-01-20 09:43:00,69.0,67.0,30.10,North,11,3.0,-999.0,94,-99.99,,,-99.99,,2013-01-20 14:43:00,
2013-01-20 09:53:00,70.0,68.0,30.10,NNE,17,0.0,-999.0,94,-99.99,,,-99.99,,2013-01-20 14:53:00,
2013-01-20 10:03:00,70.0,68.0,30.11,NNE,17,1.0,-999.0,93,-99.99,,,-99.99,,2013-01-20 15:03:00,
2013-01-20 10:12:00,70.0,68.0,30.11,NNE,17,1.0,-999.0,93,-99.99,,,-99.99,,2013-01-20 15:12:00,
2013-01-20 10:23:00,70.0,68.0,30.10,NNE,22,3.0,-999.0,93,-99.99,,,-99.99,,2013-01-20 15:23:00,
2013-01-20 10:33:00,71.0,69.0,30.10,NNE,24,1.0,-999.0,92,-99.99,,,-99.99,,2013-01-20 15:33:00,
2013-01-20 10:42:00,71.0,69.0,30.10,NNE,24,1.0,-999.0,92,-99.99,,,-99.99,,2013-01-20 15:42:00,
2013-01-20 10:53:00,72.0,69.0,30.10,NNE,15,3.0,-999.0,89,-99.99,,,-99.99,,2013-01-20 15:53:00,
2013-01-20 11:03:00,73.0,69.0,30.09,NNE,26,3.0,-999.0,88,-99.99,,,-99.99,,2013-01-20 16:03:00,
2013-01-20 11:12:00,73.0,69.0,30.09,NNE,26,3.0,-999.0,88,-99.99,,,-99.99,,2013-01-20 16:12:00,
2013-01-20 11:23:00,74.0,70.0,30.08,NNE,24,1.0,-999.0,86,-99.99,,,-99.99,,2013-01-20 16:23:00,
2013-01-20 11:33:00,75.0,70.0,30.07,ENE,71,1.0,-999.0,84,-99.99,,,-99.99,,2013-01-20 16:33:00,
2013-01-20 11:43:00,75.0,70.0,30.07,ENE,71,1.0,-999.0,84,-99.99,,,-99.99,,2013-01-20 16:43:00,
2013-01-20 11:53:00,75.0,69.0,30.06,East,81,5.0,-999.0,83,-99.99,,,-99.99,,2013-01-20 16:53:00,
2013-01-20 12:03:00,76.0,70.0,30.05,NE,53,3.0,-999.0,82,-99.99,,,-99.99,,2013-01-20 17:03:00,
2013-01-20 12:13:00,76.0,70.0,30.05,NE,53,3.0,-999.0,82,-99.99,,,-99.99,,2013-01-20 17:13:00,
2013-01-20 12:22:00,76.0,70.0,30.04,East,86,5.0,-999.0,83,-99.99,,,-99.99,,2013-01-20 17:22:00,
2013-01-20 12:33:00,76.0,70.0,30.03,East,91,4.0,-999.0,83,-99.99,,,-99.99,,2013-01-20 17:33:00,
2013-01-20 12:42:00,76.0,70.0,30.03,East,91,4.0,-999.0,83,-99.99,,,-99.99,,2013-01-20 17:42:00,
2013-01-20 12:53:00,76.0,70.0,30.02,East,100,3.0,-999.0,82,-99.99,,,-99.99,,2013-01-20 17:53:00,
2013-01-20 13:03:00,76.0,70.0,30.02,East,94,0.0,-999.0,83,-99.99,,,-99.99,,2013-01-20 18:03:00,
2013-01-20 13:13:00,76.0,70.0,30.02,East,94,0.0,-999.0,83,-99.99,,,-99.99,,2013-01-20 18:13:00,
2013-01-20 13:23:00,76.0,70.0,30.02,ENE,76,0.0,-999.0,82,-99.99,,,-99.99,,2013-01-20 18:23:00,
2013-01-20 13:33:00,77.0,71.0,30.01,ENE,75,0.0,-999.0,81,-99.99,,,-99.99,,2013-01-20 18:33:00,
2013-01-20 13:43:00,77.0,71.0,30.01,ENE,75,0.0,-999.0,81,-99.99,,,-99.99,,2013-01-20 18:43:00,
2013-01-20 13:53:00,77.0,70.0,30.00,NE,48,0.0,-999.0,80,-99.99,,,-99.99,,2013-01-20 18:53:00,
2013-01-20 14:03:00,77.0,71.0,30.00,NE,47,0.0,-999.0,81,-99.99,,,-99.99,,2013-01-20 19:03:00,
2013-01-20 14:12:00,77.0,71.0,30.00,NE,47,0.0,-999.0,81,-99.99,,,-99.99,,2013-01-20 19:12:00,
2013-01-20 14:22:00,76.0,70.0,29.99,NE,38,1.0,-999.0,81,-99.99,,,-99.99,,2013-01-20 19:22:00,
2013-01-20 14:33:00,77.0,71.0,29.99,NE,37,0.0,-999.0,81,-99.99,,,-99.99,,2013-01-20 19:33:00,
2013-01-20 14:43:00,77.0,71.0,29.99,NE,37,0.0,-999.0,81,-99.99,,,-99.99,,2013-01-20 19:43:00,
2013-01-20 14:53:00,76.0,70.0,29.99,NW,324,0.0,-999.0,82,-99.99,,,-99.99,,2013-01-20 19:53:00,
2013-01-20 15:03:00,76.0,70.0,29.99,NW,324,0.0,-999.0,82,-99.99,,,-99.99,,2013-01-20 20:03:00,
2013-01-20 15:12:00,76.0,70.0,29.99,NW,324,0.0,-999.0,82,-99.99,,,-99.99,,2013-01-20 20:12:00,
2013-01-20 15:23:00,76.0,70.0,29.98,NW,324,0.0,-999.0,82,-99.99,,,-99.99,,2013-01-20 20:23:00,
2013-01-20 15:33:00,76.0,70.0,29.98,NW,324,0.0,-999.0,82,-99.99,,,-99.99,,2013-01-20 20:33:00,
2013-01-20 15:42:00,76.0,70.0,29.98,NW,324,0.0,-999.0,82,-99.99,,,-99.99,,2013-01-20 20:42:00,
2013-01-20 15:54:00,76.0,70.0,29.98,NW,325,0.0,-999.0,82,-99.99,,,-99.99,,2013-01-20 20:54:00,
2013-01-20 16:04:00,76.0,70.0,29.98,NW,324,0.0,-999.0,82,-99.99,,,-99.99,,2013-01-20 21:04:00,
2013-01-20 16:13:00,76.0,70.0,29.98,NW,324,0.0,-999.0,82,-99.99,,,-99.99,,2013-01-20 21:13:00,
2013-01-20 16:23:00,76.0,70.0,29.97,NW,324,0.0,-999.0,83,-99.99,,,-99.99,,2013-01-20 21:23:00,
2013-01-20 16:33:00,76.0,70.0,29.98,NW,324,0.0,-999.0,83,-99.99,,,-99.99,,2013-01-20 21:33:00,
2013-01-20 16:43:00,76.0,70.0,29.98,NW,324,0.0,-999.0,83,-99.99,,,-99.99,,2013-01-20 21:43:00,
2013-01-20 16:53:00,76.0,70.0,29.98,NW,324,0.0,-999.0,82,-99.99,,,-99.99,,2013-01-20 21:53:00,
2013-01-20 17:03:00,76.0,70.0,29.98,NW,325,0.0,-999.0,82,-99.99,,,-99.99,,2013-01-20 22:03:00,
2013-01-20 17:13:00,76.0,70.0,29.98,NW,325,0.0,-999.0,82,-99.99,,,-99.99,,2013-01-20 22:13:00,
2013-01-20 17:23:00,76.0,71.0,29.98,ENE,77,0.0,-999.0,85,-99.99,,,-99.99,,2013-01-20 22:23:00,
2013-01-20 17:33:00,76.0,71.0,29.98,ENE,77,0.0,-999.0,85,-99.99,,,-99.99,,2013-01-20 22:33:00,
2013-01-20 17:43:00,76.0,71.0,29.98,ENE,77,0.0,-999.0,85,-99.99,,,-99.99,,2013-01-20 22:43:00,
2013-01-20 17:53:00,76.0,71.0,29.99,ENE,77,0.0,-999.0,85,-99.99,,,-99.99,,2013-01-20 22:53:00,
2013-01-20 18:03:00,76.0,72.0,29.98,ENE,77,0.0,-999.0,86,-99.99,,,-99.99,,2013-01-20 23:03:00,
2013-01-20 18:13:00,76.0,72.0,29.98,ENE,77,0.0,-999.0,86,-99.99,,,-99.99,,2013-01-20 23:13:00,
2013-01-20 18:23:00,75.0,70.0,29.98,ENE,77,0.0,-999.0,85,-99.99,,,-99.99,,2013-01-20 23:23:00,
2013-01-20 18:33:00,75.0,70.0,29.99,ENE,77,0.0,-999.0,84,-99.99,,,-99.99,,2013-01-20 23:33:00,
2013-01-20 18:43:00,75.0,70.0,29.99,ENE,77,0.0,-999.0,84,-99.99,,,-99.99,,2013-01-20 23:43:00,
2013-01-20 18:53:00,75.0,71.0,29.99,ENE,77,0.0,-999.0,86,-99.99,,,-99.99,,2013-01-20 23:53:00,
2013-01-20 19:03:00,75.0,71.0,30.00,ENE,77,0.0,-999.0,86,-99.99,,,-99.99,,2013-01-21 00:03:00,
2013-01-20 19:13:00,75.0,71.0,30.00,ENE,77,0.0,-999.0,86,-99.99,,,-99.99,,2013-01-21 00:13:00,
2013-01-20 19:23:00,75.0,71.0,30.00,ENE,77,0.0,-999.0,87,-99.99,,,-99.99,,2013-01-21 00:23:00,
2013-01-20 19:33:00,74.0,70.0,29.99,ENE,76,0.0,-999.0,88,-99.99,,,-99.99,,2013-01-21 00:33:00,
2013-01-20 19:43:00,74.0,70.0,29.99,ENE,76,0.0,-999.0,88,-99.99,,,-99.99,,2013-01-21 00:43:00,
2013-01-20 19:54:00,74.0,70.0,30.00,ENE,77,0.0,-999.0,88,-99.99,,,-99.99,,2013-01-21 00:54:00,
2013-01-20 20:03:00,74.0,70.0,30.00,ENE,77,0.0,-999.0,88,-99.99,,,-99.99,,2013-01-21 01:03:00,
2013-01-20 20:13:00,74.0,70.0,30.00,ENE,77,0.0,-999.0,88,-99.99,,,-99.99,,2013-01-21 01:13:00,
2013-01-20 20:23:00,74.0,71.0,30.01,ENE,77,0.0,-999.0,89,-99.99,,,-99.99,,2013-01-21 01:23:00,
2013-01-20 20:33:00,74.0,71.0,30.01,ENE,77,0.0,-999.0,89,-99.99,,,-99.99,,2013-01-21 01:33:00,
2013-01-20 20:43:00,74.0,71.0,30.01,ENE,77,0.0,-999.0,89,-99.99,,,-99.99,,2013-01-21 01:43:00,
2013-01-20 20:53:00,74.0,71.0,30.01,ENE,77,0.0,-999.0,89,-99.99,,,-99.99,,2013-01-21 01:53:00,
2013-01-20 21:03:00,74.0,71.0,30.00,ENE,77,0.0,-999.0,90,-99.99,,,-99.99,,2013-01-21 02:03:00,
2013-01-20 21:12:00,74.0,71.0,30.00,ENE,77,0.0,-999.0,90,-99.99,,,-99.99,,2013-01-21 02:12:00,
2013-01-20 21:23:00,74.0,71.0,30.00,ENE,77,0.0,-999.0,90,-99.99,,,-99.99,,2013-01-21 02:23:00,
2013-01-20 21:33:00,74.0,71.0,30.01,ENE,76,0.0,-999.0,90,-99.99,,,-99.99,,2013-01-21 02:33:00,
2013-01-20 21:43:00,74.0,71.0,30.01,ENE,76,0.0,-999.0,90,-99.99,,,-99.99,,2013-01-21 02:43:00,
2013-01-20 21:53:00,74.0,71.0,30.01,ENE,77,0.0,-999.0,91,-99.99,,,-99.99,,2013-01-21 02:53:00,
2013-01-20 22:03:00,74.0,71.0,30.01,ENE,77,0.0,-999.0,91,-99.99,,,-99.99,,2013-01-21 03:03:00,
2013-01-20 22:13:00,74.0,71.0,30.01,ENE,77,0.0,-999.0,91,-99.99,,,-99.99,,2013-01-21 03:13:00,
2013-01-20 22:23:00,74.0,71.0,30.02,ENE,76,0.0,-999.0,91,-99.99,,,-99.99,,2013-01-21 03:23:00,
2013-01-20 22:33:00,74.0,71.0,30.01,ENE,77,0.0,-999.0,91,-99.99,,,-99.99,,2013-01-21 03:33:00,
2013-01-20 22:43:00,74.0,71.0,30.01,ENE,77,0.0,-999.0,91,-99.99,,,-99.99,,2013-01-21 03:43:00,
2013-01-20 22:54:00,74.0,72.0,30.01,ENE,77,0.0,-999.0,92,-99.99,,,-99.99,,2013-01-21 03:54:00,
2013-01-20 23:03:00,74.0,72.0,30.00,ENE,76,0.0,-999.0,92,-99.99,,,-99.99,,2013-01-21 04:03:00,
2013-01-20 23:13:00,74.0,72.0,30.00,ENE,76,0.0,-999.0,92,-99.99,,,-99.99,,2013-01-21 04:13:00,
2013-01-20 23:23:00,74.0,72.0,30.01,ENE,77,0.0,-999.0,92,-99.99,,,-99.99,,2013-01-21 04:23:00,
2013-01-20 23:33:00,73.0,71.0,30.00,ENE,77,0.0,-999.0,92,-99.99,,,-99.99,,2013-01-21 04:33:00,
2013-01-20 23:43:00,73.0,71.0,30.00,ENE,77,0.0,-999.0,92,-99.99,,,-99.99,,2013-01-21 04:43:00,
2013-01-20 23:53:00,74.0,72.0,30.00,ENE,75,0.0,-999.0,92,-99.99,,,-99.99,,2013-01-21 04:53:00,